Weather History for Franklin, VA

Change the Weather History Date:

Friday, November 30, 2012

  Actual Average (KSFQ) Record (KSFQ)
Temperature  
Mean Temperature 44 °F -  
Max Temperature 60 °F 53 °F 80 °F (2001)
Min Temperature 28 °F 35 °F 20 °F (1958)
Degree Days  
Heating Degree Days 21    
Moisture  
Dew Point 34 °F    
Average Humidity 76    
Maximum Humidity 100    
Minimum Humidity 39    
Precipitation  
Precipitation 0.00 in - - ()
Sea Level Pressure  
Sea Level Pressure 30.36 in    
Wind  
Wind Speed 2 mph (SSW)    
Max Wind Speed 9 mph    
Max Gust Speed -    
Visibility 10 miles    
Events      
Averages and records for this station are not official NWS values.
T = Trace of Precipitation, MM = Missing Value Source: NWS Daily Summary

Daily Weather History Graph

Daily Weather History Graph

Search for Another Location

Airport:

Trip Planner

Search our weather history database for the weather conditions in past years. The results will help you decide how hot, cold, wet, or windy it might be!

Date:

Astronomy

Nov. 30, 2012 Rise Set
Actual Time 7:00 AM EST 4:51 PM EST
Civil Twilight 6:32 AM EST 5:20 PM EST
Nautical Twilight 6:00 AM EST 5:52 PM EST
Astronomical Twilight 5:29 AM EST 6:23 PM EST
Moon 6:44 PM EST 8:31 AM EST
Length of Visible Light 10h 47m
Length of Day
9h 50m
Waning Gibbous, 96% of the Moon is Illuminated
Nov 30
Waning Gibbous
Dec 6
Last Quarter
Dec 13
New
Dec 20
First Quarter
Dec 28
Full

Hourly Weather History & Observations

Time (EST) Temp. Windchill Dew Point Humidity Pressure Visibility Wind Dir Wind Speed Gust Speed Precip Events Conditions
12:15 AM 28.4 °F - 28.4 °F 100% 30.40 in 10.0 mi Calm Calm - N/A   Clear
12:35 AM 30.2 °F - 30.2 °F 100% 30.39 in 10.0 mi Calm Calm - N/A   Clear
12:55 AM 30.2 °F - 30.2 °F 100% 30.39 in 10.0 mi Calm Calm - N/A   Clear
1:15 AM 30.2 °F - 28.4 °F 93% 30.39 in 10.0 mi Calm Calm - N/A   Clear
1:35 AM 28.4 °F - 28.4 °F 100% 30.39 in 10.0 mi Calm Calm - N/A   Clear
1:55 AM 30.2 °F - 28.4 °F 93% 30.39 in 10.0 mi Calm Calm - N/A   Clear
2:15 AM 30.2 °F - 28.4 °F 93% 30.39 in 10.0 mi Calm Calm - N/A   Clear
2:35 AM 30.2 °F - 28.4 °F 93% 30.39 in 10.0 mi Calm Calm - N/A   Clear
2:55 AM 30.2 °F - 28.4 °F 93% 30.39 in 10.0 mi Calm Calm - N/A   Clear
3:15 AM 30.2 °F - 28.4 °F 93% 30.39 in 10.0 mi Calm Calm - N/A   Clear
3:35 AM 30.2 °F - 28.4 °F 93% 30.38 in 10.0 mi Calm Calm - N/A   Clear
3:55 AM 28.4 °F - 28.4 °F 100% 30.38 in 10.0 mi Calm Calm - N/A   Clear
4:15 AM 30.2 °F - 28.4 °F 93% 30.38 in 10.0 mi Calm Calm - N/A   Clear
4:35 AM 28.4 °F - 28.4 °F 100% 30.38 in 10.0 mi Calm Calm - N/A   Clear
4:55 AM 28.4 °F - 28.4 °F 100% 30.38 in 10.0 mi Calm Calm - N/A   Clear
5:15 AM 28.4 °F - 28.4 °F 100% 30.38 in 10.0 mi Calm Calm - N/A   Clear
5:35 AM 30.2 °F - 30.2 °F 100% 30.38 in 7.0 mi Calm Calm - N/A   Clear
5:55 AM 30.2 °F - 30.2 °F 100% 30.38 in 10.0 mi Calm Calm - N/A   Clear
6:15 AM 28.4 °F - 28.4 °F 100% 30.38 in 10.0 mi Calm Calm - N/A   Clear
6:35 AM 30.2 °F 26.7 °F 30.2 °F 100% 30.39 in 10.0 mi South 3.5 mph - N/A   Clear
6:55 AM 30.2 °F 26.7 °F 30.2 °F 100% 30.39 in 10.0 mi SSE 3.5 mph - N/A   Clear
7:15 AM 30.2 °F - 28.4 °F 93% 30.39 in 10.0 mi Calm Calm - N/A   Clear
7:35 AM 28.4 °F - 28.4 °F 100% 30.39 in 10.0 mi Calm Calm - N/A   Clear
7:55 AM 30.2 °F - 30.2 °F 100% 30.39 in 7.0 mi Calm Calm - N/A   Clear
8:15 AM 35.6 °F 32.8 °F 33.8 °F 93% 30.40 in 10.0 mi SSE 3.5 mph - N/A   Clear
8:35 AM 37.4 °F - 35.6 °F 93% 30.40 in 10.0 mi Calm Calm - N/A   Clear
8:55 AM 41.0 °F 38.0 °F 33.8 °F 76% 30.41 in 10.0 mi SW 4.6 mph - N/A   Clear
9:15 AM 42.8 °F 40.1 °F 35.6 °F 76% 30.41 in 10.0 mi SSW 4.6 mph - N/A   Clear
9:35 AM 44.6 °F 43.1 °F 35.6 °F 71% 30.41 in 10.0 mi South 3.5 mph - N/A   Clear
9:55 AM 48.2 °F - 35.6 °F 62% 30.41 in 10.0 mi SSW 4.6 mph - N/A   Clear
10:15 AM 50.0 °F - 35.6 °F 58% 30.41 in 10.0 mi SW 5.8 mph - N/A   Clear
10:35 AM 51.8 °F - 35.6 °F 54% 30.41 in 10.0 mi SSW 6.9 mph - N/A   Clear
10:55 AM 53.6 °F - 35.6 °F 51% 30.40 in 10.0 mi SW 8.1 mph - N/A   Clear
11:15 AM 55.4 °F - 35.6 °F 47% 30.39 in 10.0 mi SW 3.5 mph - N/A   Clear
11:35 AM 57.2 °F - 33.8 °F 41% 30.38 in 10.0 mi SW 6.9 mph - N/A   Clear
11:55 AM 57.2 °F - 35.6 °F 44% 30.37 in 10.0 mi WSW 8.1 mph - N/A   Clear
12:15 PM 57.2 °F - 33.8 °F 41% 30.35 in 10.0 mi SW 5.8 mph - N/A   Clear
12:35 PM 59.0 °F - 33.8 °F 39% 30.34 in 10.0 mi SW 5.8 mph - N/A   Clear
12:55 PM 59.0 °F - 35.6 °F 42% 30.34 in 10.0 mi SW 9.2 mph - N/A   Clear
1:15 PM 60.8 °F - 35.6 °F 39% 30.33 in 10.0 mi SSW 5.8 mph - N/A   Clear
1:35 PM 60.8 °F - 35.6 °F 39% 30.32 in 10.0 mi SW 6.9 mph - N/A   Clear
1:55 PM 60.8 °F - 35.6 °F 39% 30.31 in 10.0 mi WSW 5.8 mph - N/A   Clear
2:15 PM 60.8 °F - 35.6 °F 39% 30.31 in 10.0 mi South 5.8 mph - N/A   Clear
2:35 PM 60.8 °F - 35.6 °F 39% 30.30 in 10.0 mi South 6.9 mph - N/A   Clear
2:55 PM 60.8 °F - 35.6 °F 39% 30.30 in 10.0 mi SSW 6.9 mph - N/A   Clear
3:15 PM 60.8 °F - 35.6 °F 39% 30.30 in 10.0 mi SW 9.2 mph - N/A   Clear
3:35 PM 60.8 °F - 35.6 °F 39% 30.30 in 10.0 mi SSW 5.8 mph - N/A   Clear
3:55 PM 60.8 °F - 35.6 °F 39% 30.30 in 10.0 mi South 4.6 mph - N/A   Clear
4:15 PM 57.2 °F - 35.6 °F 44% 30.31 in 10.0 mi South 4.6 mph - N/A   Clear
4:35 PM 55.4 °F - 37.4 °F 51% 30.31 in 10.0 mi South 3.5 mph - N/A   Clear
4:55 PM 55.4 °F - 37.4 °F 51% 30.31 in 10.0 mi Calm Calm - N/A   Clear
5:15 PM 51.8 °F - 37.4 °F 58% 30.32 in 10.0 mi Calm Calm - N/A   Clear
5:35 PM 50.0 °F - 39.2 °F 66% 30.32 in 10.0 mi Calm Calm - N/A   Clear
5:55 PM 46.4 °F - 39.2 °F 76% 30.32 in 10.0 mi Calm Calm - N/A   Clear
6:15 PM 46.4 °F - 39.2 °F 76% 30.32 in 10.0 mi Calm Calm - N/A   Clear
6:35 PM 46.4 °F - 39.2 °F 76% 30.32 in 10.0 mi Calm Calm - N/A   Clear
6:55 PM 46.4 °F - 39.2 °F 76% 30.32 in 10.0 mi Calm Calm - N/A   Clear
7:15 PM 46.4 °F - 39.2 °F 76% 30.33 in 10.0 mi Calm Calm - N/A   Clear
7:35 PM 44.6 °F - 39.2 °F 81% 30.33 in 10.0 mi Calm Calm - N/A   Clear
8:15 PM 42.8 °F - 39.2 °F 87% 30.34 in 10.0 mi Calm Calm - N/A   Clear
8:35 PM 42.8 °F - 39.2 °F 87% 30.34 in 10.0 mi Calm Calm - N/A   Clear
8:55 PM 41.0 °F - 37.4 °F 87% 30.34 in 10.0 mi Calm Calm - N/A   Clear
9:15 PM 42.8 °F - 39.2 °F 87% 30.34 in 10.0 mi Calm Calm - N/A   Clear
9:35 PM 39.2 °F - 37.4 °F 93% 30.35 in 10.0 mi Calm Calm - N/A   Clear
10:15 PM 39.2 °F - 37.4 °F 93% 30.35 in 10.0 mi Calm Calm - N/A   Clear
10:35 PM 39.2 °F - 37.4 °F 93% 30.35 in 10.0 mi Calm Calm - N/A   Clear
10:55 PM 39.2 °F - 37.4 °F 93% 30.35 in 10.0 mi Calm Calm - N/A   Clear
11:15 PM 37.4 °F - 37.4 °F 100% 30.35 in 10.0 mi Calm Calm - N/A   Clear
11:35 PM 37.4 °F - 37.4 °F 100% 30.35 in 7.0 mi Calm Calm - N/A   Clear